Weather History for Exeter, United Kingdom

Change the Weather History Date:

Thursday, October 3, 2013

  Actual Average Record
Temperature  
Mean Temperature 63 °F -  
Max Temperature 66 °F 57 °F 78 °F (2011)
Min Temperature 60 °F 44 °F 39 °F (2008)
Degree Days  
Heating Degree Days 2    
Growing Degree Days 13 (Base 50)    
Moisture  
Dew Point 61 °F    
Average Humidity 94    
Maximum Humidity 100    
Minimum Humidity 84    
Precipitation  
Precipitation 0.55 in - - ()
Sea Level Pressure  
Sea Level Pressure 29.64 in    
Wind  
Wind Speed 9 mph ()    
Max Wind Speed 25 mph    
Max Gust Speed 31 mph    
Visibility 5.3 miles    
Events Rain    
Averages and records for this station are not official NWS values.
T = Trace of Precipitation, MM = Missing Value Source: Averaged Metar Reports

Daily Weather History Graph

Daily Weather History Graph

Search for Another Location

Airport:

Trip Planner

Search our weather history database for the weather conditions in past years. The results will help you decide how hot, cold, wet, or windy it might be!

Date:

Astronomy

Oct. 03, 2013 Rise Set
Actual Time 7:17 AM BST 6:47 PM BST
Civil Twilight 6:44 AM BST 7:19 PM BST
Nautical Twilight 6:06 AM BST 7:57 PM BST
Astronomical Twilight 5:27 AM BST 8:36 PM BST
Moon 5:28 AM BST (10/3) 5:51 PM BST (10/3)
Length of Visible Light 12h 35m
Length of Day
11h 29m
Waning Crescent, 3% of the Moon is Illuminated
Oct 3
Waning Crescent
Oct 5
New
Oct 12
First Quarter
Oct 19
Full
Oct 27
Last Quarter

Hourly Weather History & Observations

Time (BST) Temp. Dew Point Humidity Pressure Visibility Wind Dir Wind Speed Gust Speed Precip Events Conditions
12:20 AM 62.6 °F 60.8 °F 94% 29.77 in 6.2 mi Variable 3.5 mph - N/A   Scattered Clouds
12:50 AM 62 °F 60 °F 93%  in - Calm Calm - -  
12:50 AM 62.6 °F 60.8 °F 94% 29.80 in 6.2 mi WSW 5.8 mph - N/A   Mostly Cloudy
1:20 AM 62.6 °F 60.8 °F 94% 29.77 in 6.2 mi Variable 3.5 mph - N/A   Scattered Clouds
1:50 AM 60.8 °F 60.8 °F 100% 29.77 in 6.2 mi East 6.9 mph - N/A   Scattered Clouds
2:20 AM 62.6 °F 60.8 °F 94% 29.77 in 6.2 mi ESE 6.9 mph - N/A   Scattered Clouds
5:50 AM 60.8 °F 59.0 °F 94% 29.71 in 6.2 mi Variable 2.3 mph - N/A   Scattered Clouds
6:20 AM 62.6 °F 59.0 °F 88% 29.71 in 6.2 mi East 6.9 mph - N/A   Partly Cloudy
6:50 AM 62 °F 58 °F 84%  in - Calm Calm - -  
6:50 AM 62.6 °F 59.0 °F 88% 29.68 in 6.2 mi East 11.5 mph - N/A   Partly Cloudy
7:20 AM 60.8 °F 59.0 °F 94% 29.68 in 6.2 mi East 4.6 mph - N/A   Partly Cloudy
7:50 AM 62.6 °F 59.0 °F 88% 29.68 in 6.2 mi ESE 10.4 mph - N/A   Partly Cloudy
8:20 AM 62.6 °F 60.8 °F 94% 29.65 in 6.2 mi ESE 17.3 mph - N/A   Partly Cloudy
8:50 AM 62.6 °F 60.8 °F 94% 29.65 in 6.2 mi ESE 17.3 mph - N/A   Scattered Clouds
9:20 AM 64.4 °F 60.8 °F 88% 29.62 in 4.3 mi East 16.1 mph - N/A   Mostly Cloudy
9:50 AM 64 °F 61 °F 88%  in - Calm Calm - -  
9:50 AM 64.4 °F 60.8 °F 88% 29.62 in 4.3 mi East 18.4 mph - N/A   Mostly Cloudy
10:20 AM 64.4 °F 62.6 °F 94% 29.59 in 3.7 mi East 19.6 mph 31.1 mph N/A Rain Rain
10:50 AM 62.6 °F 62.6 °F 100% 29.59 in 1.2 mi ESE 25.3 mph - N/A Rain Heavy Rain
11:20 AM 62.6 °F 62.6 °F 100% 29.59 in 3.1 mi ESE 18.4 mph 29.9 mph N/A Rain Rain
11:50 AM 62.6 °F 62.6 °F 100% 29.59 in 3.7 mi SSE 11.5 mph - N/A Rain Light Rain Showers
12:20 PM 62.6 °F 62.6 °F 100% 29.59 in 3.1 mi SE 13.8 mph - N/A Rain Light Rain Showers
12:50 PM 63 °F 62 °F 96%  in - Calm Calm - -  
12:50 PM 62.6 °F 62.6 °F 100% 29.59 in 2.2 mi SE 12.7 mph - N/A Rain Rain Showers
1:20 PM 62.6 °F 62.6 °F 100% 29.59 in 1.2 mi SSE 11.5 mph - N/A Rain Rain Showers
1:50 PM 62.6 °F 62.6 °F 100% 29.56 in 3.7 mi SSE 10.4 mph - N/A   Mostly Cloudy
2:20 PM 62.6 °F 62.6 °F 100% 29.56 in 4.3 mi South 15.0 mph - N/A   Mostly Cloudy
2:50 PM 64.4 °F 62.6 °F 94% 29.59 in 4.3 mi South 13.8 mph - N/A   Scattered Clouds
3:20 PM 64.4 °F 62.6 °F 94% 29.59 in 5.0 mi South 15.0 mph - N/A   Scattered Clouds
3:50 PM 65 °F 64 °F 93%  in - Calm Calm - -  
3:50 PM 64.4 °F 62.6 °F 94% 29.59 in 5.6 mi South 12.7 mph - N/A   Scattered Clouds
4:20 PM 66.2 °F 64.4 °F 94% 29.59 in 6.2 mi South 10.4 mph - N/A   Scattered Clouds
4:50 PM 66.2 °F 62.6 °F 88% 29.59 in 6.2 mi South 12.7 mph - N/A   Scattered Clouds
5:20 PM 64.4 °F 62.6 °F 94% 29.62 in 6.2 mi South 16.1 mph - N/A   Scattered Clouds
5:50 PM 64.4 °F 60.8 °F 88% 29.62 in 6.2 mi South 13.8 mph - N/A   Scattered Clouds
6:20 PM 62.6 °F 60.8 °F 94% 29.62 in 6.2 mi South 13.8 mph - N/A   Partly Cloudy
6:50 PM 62.6 °F 60.8 °F 94% 29.62 in 6.2 mi South 10.4 mph - N/A   Partly Cloudy
7:20 PM 62.6 °F 60.8 °F 94% 29.62 in 6.2 mi SSE 8.1 mph - N/A   Partly Cloudy
7:50 PM 60.8 °F 60.8 °F 100% 29.65 in 6.2 mi SE 6.9 mph - N/A   Partly Cloudy
8:20 PM 60.8 °F 59.0 °F 94% 29.62 in 6.2 mi East 5.8 mph - N/A   Partly Cloudy
8:50 PM 60.8 °F 60.8 °F 100% 29.65 in 6.2 mi South 5.8 mph - N/A Rain Light Rain Showers
9:20 PM 62.6 °F 60.8 °F 94% 29.65 in 6.2 mi South 6.9 mph - N/A Rain Light Rain Showers
9:50 PM 63 °F 61 °F 91%  in - Calm Calm - -  
9:50 PM 62.6 °F 60.8 °F 94% 29.65 in 6.2 mi ESE 11.5 mph - N/A Rain Light Rain Showers
10:20 PM 62.6 °F 60.8 °F 94% 29.62 in 6.2 mi ESE 10.4 mph - N/A Rain Rain Showers
10:50 PM 62.6 °F 60.8 °F 94% 29.62 in 6.2 mi South 5.8 mph - N/A Rain Rain Showers
11:20 PM 62.6 °F 60.8 °F 94% 29.59 in 6.2 mi SE 12.7 mph - N/A   Scattered Clouds
11:50 PM 64.4 °F 62.6 °F 94% 29.59 in 6.2 mi SE 19.6 mph 31.1 mph N/A Rain Light Rain Showers